Regional Weather Roundup
Issued by NWS Albany, NY

Home | Current Version | Previous Version | Text Only | Print | Product List | Glossary On
Versions: 1 2 3 4 5 6 7 8 9 10 11 12 13 14 15 16 17 18 19 20 21 22 23 24 25 26 27 28 29 30 31 32 33 34 35 36 37 38 39 40 41 42 43 44 45 46 47 48 49 50
000
ASUS41 KALY 211710
RWRALY

NEW YORK STATE HOURLY WEATHER ROUNDUP
NATIONAL WEATHER SERVICE ALBANY NY
100 PM EDT THU AUG 21 2014

NOTE: "FAIR" INDICATES FEW OR NO CLOUDS BELOW 12,000 FEET WITH NO
SIGNIFICANT WEATHER AND/OR NO OBSTRUCTIONS TO VISIBILITY.

NYZ032-033-038>043-046>054-057>066-NYZ062>081-211800-
EAST


CITY           SKY/WX    TMP DP  RH WIND       PRES   REMARKS
ALBANY         CLOUDY    73  65  75 SE7       30.03S
GLENS FALLS    CLOUDY    69  64  84 CALM      30.03F
POUGHKEEPSIE   CLOUDY    77  61  57 S12       30.03F
NEWBURGH       PTSUNNY   77  64  65 VRB6      30.06S
MONTGOMERY     CLOUDY    77  60  55 S3        30.03F
WHITE PLAINS   PTSUNNY   76  63  64 S8        30.05F
ISLIP          PTSUNNY   76  57  51 SE7       30.05S
NEW YORK CITY  PTSUNNY   78  60  53 S10       30.04F
CENTRAL PARK   MOSUNNY   81  63  54 VRB5      30.07S
$$

NYZ005>009-017-018-044>046-055-056-211800-
CENTRAL


CITY           SKY/WX    TMP DP  RH WIND       PRES   REMARKS
FULTON         MOSUNNY   77  68  73 S7        29.96F
SYRACUSE       PTSUNNY   76  69  79 SE5       29.96F
ROME           LGT RAIN  70  68  93 CALM      30.00S
ELMIRA         MOSUNNY   82  67  60 SW9       29.97F
BINGHAMTON     PTSUNNY   76  67  73 S9        30.01F
MONTICELLO     CLOUDY    70  66  88 SE5       30.08S
$$

NYZ026>034-041>043-211800-
NORTH


CITY           SKY/WX    TMP DP  RH WIND       PRES   REMARKS
WATERTOWN      CLOUDY    76  66  71 SW10      29.96F
FORT DRUM      NOT AVBL
MASSENA        PTSUNNY   74  68  81 E9        29.99S
SARANAC LAKE   PTSUNNY   73  64  73 VRB6      30.02F
PLATTSBURGH    CLOUDY    71  66  84 SE13      30.03S
$$

NYZ001>004-010>016-019>021-211800-
WEST


CITY           SKY/WX    TMP DP  RH WIND       PRES   REMARKS
NIAGARA FALLS  PTSUNNY   77  65  66 W8        29.95
BUFFALO        MOSUNNY   77  64  64 SW14      29.97F
DUNKIRK        SUNNY     77  66  68 W14G22    29.99F
JAMESTOWN      MOSUNNY   75  64  69 SW13      30.03F
WELLSVILLE     PTSUNNY   76  60  57 W12G20    30.06F
ROCHESTER      CLOUDY    80  64  58 W9G16     29.96S
PENN YAN       PTSUNNY   79  67  66 S10       29.98F
$$

             KEY
       WCI = WIND CHILL INDEX
       VSB = VISIBILITY
       HX  = HEAT INDEX
$$



USA.gov is the U.S. government's official web portal to all federal, state and local government web resources and services.